Regional Weather Roundup
Issued by NWS

Home | Current Version | Previous Version | Text Only | Print | Product List | Glossary Off
Versions: 1 2 3 4 5 6 7 8 9 10 11 12 13 14 15 16 17 18 19 20 21 22 23 24 25 26 27 28 29 30 31 32 33 34 35 36 37 38 39 40 41 42 43 44 45 46 47 48 49 50

000
ASUS45 KCYS 251110
RWRWY

WYOMING REGIONAL WEATHER ROUNDUP
NATIONAL WEATHER SERVICE CHEYENNE WY
500 AM MDT FRI JUL 25 2014

NOTE:  "FAIR" INDICATES FEW OR NO CLOUDS BELOW 12,000 FEET
WITH NO SIGNIFICANT WEATHER AND/OR OBSTRUCTIONS TO VISIBILITY.

WYZ001-251200-
YELLOWSTONE NATIONAL PARK

CITY           SKY/WX    TMP DP  RH WIND       PRES   REMARKS
LK YELLOWSTONE   N/A     31  23  72 NW3       30.27S
W YELLOWSTONE  NOT AVBL

$$
WYZ002>013-054>058-071-098>099-251200-
NORTHERN WYOMING

CITY           SKY/WX    TMP DP  RH WIND       PRES   REMARKS
JACKSON        CLEAR     37  28  70 NE6       30.20R WCI  33
CODY           NOT AVBL
GREYBULL       CLEAR     60  42  51 CALM      29.97R
WORLAND        CLEAR     55  36  48 NW3       29.99R
SHERIDAN       CLEAR     53  46  77 SW3       30.01S
BUFFALO        CLEAR     54  45  71 SW6       30.07S
GILLETTE       CLEAR     48  44  86 S3        30.02S
HULETT         FAIR      54  45  71 MISG      30.03
NEWCASTLE      FAIR      63  36  36 NW10      29.98

$$
WYZ014>020-022>026-101>103-251200-
CENTRAL WYOMING

CITY           SKY/WX    TMP DP  RH WIND       PRES   REMARKS
BIG PINEY      PTCLDY    43  28  55 CALM      30.22S
PINEDALE       MOSUNNY   41  34  75 NW5       30.23S
DUBOIS         FAIR      45  18  33 W18       30.17S
LANDER         CLEAR     57  26  30 SE3       30.06S
RIVERTON       CLOUDY    65  22  19 W5        30.07S
CASPER         CLEAR     55  48  77 NE7       30.10R
DOUGLAS        CLEAR     56  51  84 NW6       30.09R

$$
WYZ021-027>030-104>119-251200-
SOUTHERN WYOMING

CITY           SKY/WX    TMP DP  RH WIND       PRES   REMARKS
EVANSTON       CLEAR     55  36  48 E5        30.22S
KEMMERER       SUNNY     50  32  50 NW9       30.23S
FORT BRIDGER   FAIR      58  33  38 W8        30.23R
ROCK SPRINGS   PTCLDY    60  26  27 CALM      30.18F
DIXON          FAIR      66  45  46 E13       30.22S
RAWLINS        PTCLDY    65  45  48 SW8       30.18F
SARATOGA       FAIR      61  45  55 SE12      30.22F
LARAMIE        MOCLDY    59  45  59 CALM      30.23R
CHEYENNE       MOCLDY    72  45  37 W22       30.11R
TORRINGTON     CLEAR     66  52  60 NW14      29.98R
PINE BLUFFS    FAIR      57  52  82 W6        30.05S

$$


USA.gov is the U.S. government's official web portal to all federal, state and local government web resources and services.